GFSNIL_sfc_dewp_000.txt.gz
Dewpoint
35 36 35 35 35 36 33 34 37 38 38 38 39 39 39 39 40 40 40 39 38 37
36 35 34 34 34 34 34 37 38 38 38 38 40 41 40 39 38 38 38 37 37 36
34 34 34 33 33 32 34 37 37 37 36 37 35 36 38 39 39 38 37 36 34 33
34 34 32 31 32 33 35 34 32 33 33 34 35 35 35 35 34 33 32 31 30 29
32 29 29 30 30 31 30 30 30 31 31 31 31 31 31 30 29 28 27 27 27 27
26 26 28 29 32 34 34 33 32 30 30 31 31 29 28 27 27 26 26 26 26 26
30 28 30 35 36 35 35 33 33 32 32 31 27 25 25 25 25 24 23 24 24 23
36 37 36 36 37 37 36 36 37 35 28 26 24 22 26 24 23 23 23 24 23 23
39 37 37 37 37 37 36 36 37 29 24 23 22 30 27 28 26 25 24 23 22 23
31 33 35 35 35 33 28 25 23 22 23 24 25 28 28 27 25 25 24 23 23 23
30 27 26 24 23 23 21 20 20 22 25 24 22 25 25 25 24 23 23 23 23 23
25 24 24 22 20 20 19 20 22 24 23 21 21 24 24 23 22 21 21 23 23 24
24 24 22 19 19 19 20 22 22 20 21 21 21 23 24 23 22 21 23 23 23 24
24 23 19 19 19 19 20 21 17 15 17 19 21 21 23 23 23 24 24 24 23 24

GFSNIL_sfc_dewp_003.txt.gz
Dewpoint
41 39 37 38 38 37 36 37 39 39 39 40 41 41 41 41 41 40 39 39 39 38
40 38 38 38 37 36 37 38 39 41 39 39 39 39 38 38 37 38 38 38 38 37
38 37 36 35 36 36 38 39 37 35 34 34 34 34 35 35 36 36 36 35 35 35
37 34 33 34 35 36 37 34 33 32 33 34 35 34 34 34 32 30 30 31 31 30
33 30 32 34 35 37 36 34 33 32 34 35 32 34 31 29 27 25 24 24 26 25
33 31 32 37 38 38 37 36 36 37 35 33 30 28 26 25 25 25 26 26 26 25
36 36 37 38 38 38 36 35 34 35 36 33 26 23 23 23 25 24 23 24 23 22
39 38 37 34 32 33 34 35 35 36 33 26 23 18 25 24 23 23 23 24 22 23
30 30 31 32 33 32 29 25 25 24 23 24 21 31 27 28 25 24 23 22 21 21
32 28 25 24 23 23 23 23 22 22 23 24 25 26 26 26 22 22 22 20 19 18
28 23 23 23 22 21 21 21 20 23 24 21 19 23 24 24 23 24 23 21 20 20
23 23 23 21 20 21 20 20 21 19 20 19 20 22 22 23 25 24 23 21 21 21
23 22 21 20 19 20 19 19 19 19 19 21 23 22 23 23 23 24 22 23 23 24
22 22 21 19 19 18 18 22 25 25 24 23 22 22 22 21 24 23 23 23 23 25

GFSNIL_sfc_dewp_006.txt.gz
Dewpoint
41 41 38 37 37 36 36 38 41 40 40 40 40 40 41 41 40 39 40 39 39 39
42 40 39 38 37 36 39 37 40 41 38 35 36 37 37 37 37 37 37 37 37 37
39 38 37 37 37 38 38 40 37 35 34 35 36 38 38 38 37 36 35 33 32 29
38 36 36 36 37 37 38 35 34 33 35 35 37 39 39 37 35 30 29 29 27 26
36 35 35 36 37 37 37 37 36 37 38 38 37 35 32 32 29 27 25 25 26 24
36 36 36 37 37 38 38 37 38 36 35 35 34 33 30 26 25 26 26 25 24 23
36 38 38 38 36 35 33 32 31 30 29 30 26 24 23 22 24 24 23 24 25 24
33 32 31 31 29 28 27 23 23 22 23 23 22 18 26 22 24 24 24 25 23 24
31 29 28 27 26 23 22 22 22 22 22 23 18 28 27 27 24 22 21 21 22 21
31 26 25 22 19 20 22 23 23 23 23 24 23 24 24 25 21 21 21 22 21 18
27 23 21 20 20 22 22 22 22 23 23 22 19 24 23 23 22 23 23 22 21 20
25 22 19 19 21 22 22 22 22 22 22 21 21 24 23 23 24 23 23 21 20 21
25 22 19 21 22 23 22 21 22 24 24 24 24 23 22 22 23 25 24 24 24 25
24 20 20 22 22 22 22 24 28 29 27 25 24 22 21 21 23 25 23 22 24 25

GFSNIL_sfc_dewp_009.txt.gz
Dewpoint
42 41 39 39 37 36 36 37 39 40 40 40 41 41 41 39 40 39 40 39 39 40
41 40 39 38 38 36 38 36 38 39 37 40 38 40 39 39 39 39 39 39 39 37
39 39 37 37 37 37 37 37 37 38 38 38 39 38 38 38 37 37 37 35 34 32
38 37 36 35 36 37 39 37 37 38 38 38 37 39 39 37 36 36 36 34 31 29
34 34 34 35 36 38 36 38 37 37 37 37 37 37 36 36 34 30 29 29 29 28
32 33 34 34 34 34 33 32 32 31 31 28 28 26 25 24 25 26 26 26 25 24
33 32 32 32 31 29 27 25 23 23 22 23 21 21 21 22 24 23 21 23 24 23
31 31 30 29 27 26 25 22 21 22 22 23 21 19 25 24 23 23 23 25 21 24
30 31 30 27 25 22 22 21 22 22 22 23 17 27 25 24 22 20 20 20 21 21
30 31 27 24 19 19 21 23 22 22 21 22 23 24 24 25 22 21 21 21 21 20
30 29 25 22 19 20 21 22 21 22 23 23 21 28 25 24 22 22 21 21 21 22
29 28 24 20 20 21 21 22 21 22 24 24 24 27 25 23 23 22 21 20 21 22
25 26 23 21 21 22 21 20 23 25 25 26 25 27 23 24 24 24 23 23 21 24
28 25 22 21 21 20 21 25 29 31 28 26 26 25 23 23 24 24 25 23 24 26

GFSNIL_sfc_dewp_015.txt.gz
Dewpoint
41 42 40 37 37 37 39 39 38 38 39 40 40 39 39 39 38 38 38 38 37 38
41 39 37 36 37 39 38 36 37 38 39 39 39 39 38 38 38 39 38 38 39 38
38 38 37 38 37 36 36 36 37 37 37 36 36 37 38 37 37 37 37 37 37 37
36 37 37 37 36 34 35 34 35 35 34 33 34 34 35 35 36 36 34 34 30 29
36 34 34 34 33 33 32 34 34 30 28 28 27 28 27 27 28 27 27 26 26 25
34 33 32 30 32 32 32 29 27 26 27 27 28 26 26 26 27 26 25 25 24 23
37 36 33 32 31 31 30 26 25 25 26 27 26 26 25 24 25 24 24 25 24 23
38 35 36 37 36 36 30 26 25 25 26 26 25 23 25 25 24 23 23 24 22 22
38 37 38 38 38 33 27 24 24 25 25 26 23 29 27 25 24 23 23 21 20 21
39 38 37 37 36 27 23 23 25 25 25 25 26 29 28 28 25 23 22 21 21 19
36 36 37 37 33 24 24 23 24 25 26 26 25 29 30 30 26 24 23 22 21 20
35 35 35 35 26 24 24 25 26 27 27 26 26 29 28 27 25 24 24 23 22 21
36 36 35 35 32 25 24 27 28 27 27 28 26 26 24 28 26 22 22 22 21 22
34 35 35 34 28 24 24 27 26 25 25 25 24 23 23 23 22 21 21 20 20 22

GFSNIL_sfc_dewp_018.txt.gz
Dewpoint
40 40 39 38 37 39 37 36 36 38 38 39 38 38 38 38 37 38 37 36 37 37
41 40 39 37 38 37 36 35 36 37 37 37 36 37 37 36 36 35 35 36 37 36
38 39 37 37 36 35 35 35 35 34 34 33 32 33 34 34 34 34 34 32 30 29
35 37 37 36 35 34 35 35 34 34 30 28 27 28 28 28 29 27 26 26 26 26
35 34 35 35 35 35 35 34 34 31 27 27 26 26 26 26 26 26 25 25 25 24
35 33 33 33 34 34 33 33 31 26 27 26 26 26 26 25 25 24 24 24 24 24
36 37 36 33 37 38 37 36 32 27 27 27 26 25 24 24 24 23 23 25 24 23
37 36 36 37 37 38 37 36 29 26 26 26 25 23 25 24 24 23 23 24 23 21
37 37 37 37 37 37 37 28 25 26 27 25 23 29 28 28 25 24 23 22 21 21
36 37 37 37 38 36 34 28 26 26 26 25 25 29 30 30 26 25 24 23 22 21
35 35 35 36 35 34 28 27 25 27 26 25 25 30 29 28 26 24 24 23 22 21
35 35 35 34 34 34 30 25 27 26 25 26 25 25 24 26 23 23 21 21 21 20
35 35 34 33 32 31 25 27 27 25 25 24 22 22 21 21 22 17 20 20 19 21
31 31 32 32 29 24 27 26 24 22 23 23 22 21 20 20 20 20 21 19 19 21

GFSNIL_sfc_dewp_024.txt.gz
Dewpoint
39 38 38 38 38 38 37 36 35 36 38 38 38 37 37 37 36 35 34 33 33 32
39 39 39 38 38 37 37 36 35 35 37 37 36 36 35 35 33 32 32 32 30 27
37 36 36 37 37 36 36 35 36 36 35 35 34 33 31 30 29 31 30 28 26 25
34 35 35 36 36 36 36 36 35 35 35 34 31 30 29 28 27 28 26 26 25 25
33 35 34 34 34 35 35 35 35 32 34 34 33 28 27 26 27 26 24 24 24 24
34 35 33 33 34 34 33 33 34 36 35 32 29 27 26 26 25 24 24 24 24 23
33 33 33 34 34 34 34 35 36 36 35 29 26 26 25 24 24 24 24 25 24 24
34 35 35 35 35 35 36 36 34 30 27 27 25 23 24 26 27 26 26 26 25 25
34 34 33 34 34 35 35 33 35 29 26 25 24 30 31 29 27 26 24 23 21 21
33 33 33 33 34 33 34 34 29 25 25 24 27 28 25 26 24 21 20 19 18 17
32 32 33 33 33 31 29 29 25 25 25 25 23 23 22 22 23 21 20 19 19 18
31 31 30 30 31 31 31 28 26 25 24 21 20 22 21 21 20 20 19 19 19 19
30 29 28 28 28 29 26 26 25 23 23 22 20 20 20 21 20 16 20 20 19 20
28 27 27 25 25 25 26 24 24 22 23 21 20 20 20 22 20 20 21 20 18 20

GFSNIL_sfc_dewp_027.txt.gz
Dewpoint
43 42 41 42 41 41 41 40 41 40 40 40 40 39 39 38 37 38 34 32 31 31
42 41 41 41 41 40 41 39 40 39 38 38 39 38 38 36 35 34 32 32 32 31
39 37 38 39 39 40 40 40 40 39 39 37 37 36 34 31 31 31 31 30 31 28
35 36 37 37 38 38 39 36 37 37 37 36 33 33 35 32 30 29 29 30 28 26
35 35 34 34 35 36 35 36 36 36 35 35 36 35 34 29 29 28 28 26 26 26
34 34 33 34 34 34 35 37 37 36 37 37 36 29 28 28 27 25 25 26 26 26
35 35 34 35 34 35 36 37 38 38 34 33 28 27 26 25 26 28 27 27 25 23
36 36 35 34 35 36 37 37 35 31 29 28 27 24 28 28 27 25 23 21 19 19
35 34 34 35 35 35 36 35 34 31 30 27 26 30 27 26 24 21 18 16 16 16
33 33 33 33 32 32 35 34 32 29 27 27 27 25 24 23 21 18 17 16 15 15
32 32 32 31 30 31 34 32 32 28 26 26 21 22 22 22 19 18 17 16 16 16
32 30 30 29 29 30 31 33 29 27 25 21 20 21 21 21 22 20 19 18 17 17
30 30 29 30 28 28 30 29 26 24 23 21 22 19 20 21 24 24 21 19 16 17
30 29 29 28 26 26 26 27 27 26 25 22 22 21 20 21 24 22 20 18 15 16

GFSNIL_sfc_dewp_030.txt.gz
Dewpoint
38 39 38 39 39 36 34 35 39 41 40 39 39 38 38 37 37 37 35 32 31 27
42 41 38 34 34 34 36 32 33 36 36 36 36 37 38 37 37 35 34 33 31 28
37 33 33 34 32 32 32 31 31 31 31 34 35 36 37 35 34 34 33 29 29 28
31 31 32 31 30 31 33 31 30 32 33 33 33 35 35 36 34 31 30 29 28 29
29 29 29 29 30 32 32 32 32 34 33 33 33 35 36 33 29 29 28 28 28 27
27 28 28 29 32 32 32 32 34 33 34 33 34 34 30 29 30 29 28 28 28 26
29 30 31 32 32 32 32 33 33 33 32 32 30 29 28 27 27 28 27 27 25 23
30 33 32 33 32 32 33 33 32 32 33 32 30 25 30 28 28 26 24 23 19 19
30 32 32 32 32 31 31 32 32 32 30 30 25 28 25 25 24 23 20 18 17 18
31 30 30 29 28 29 30 32 31 31 31 30 30 24 22 22 21 20 19 18 17 16
29 28 28 28 29 30 30 30 31 30 30 30 25 22 21 22 22 22 21 19 19 18
28 28 27 28 29 30 29 29 30 30 29 28 25 21 20 21 23 23 22 19 19 17
28 28 28 30 30 29 28 27 27 28 29 26 26 22 20 21 25 27 23 21 18 17
27 27 28 30 29 28 27 28 30 30 28 27 26 25 20 20 26 25 23 20 19 18

GFSNIL_sfc_dewp_036.txt.gz
Dewpoint
45 43 40 43 41 39 38 39 38 36 37 37 37 37 38 39 39 40 39 37 38 38
43 42 42 41 39 39 38 33 37 37 36 36 36 37 37 36 37 38 38 38 38 37
43 41 41 37 37 35 35 34 35 35 34 35 36 36 36 37 36 37 38 37 35 34
41 40 37 37 36 34 34 34 34 33 33 34 34 35 35 36 36 34 34 34 33 32
39 38 37 36 35 35 34 35 33 33 33 33 33 33 33 34 34 32 31 31 31 30
38 35 34 35 34 34 34 34 33 32 34 34 33 31 32 32 32 31 31 30 30 28
35 35 34 33 33 34 34 33 33 34 34 35 32 31 31 30 31 30 28 29 27 24
34 33 33 34 34 35 35 33 34 34 34 32 31 29 31 29 28 27 26 26 23 22
32 31 33 34 35 35 34 33 33 32 33 32 27 30 29 27 25 25 25 23 23 23
30 30 32 31 31 31 32 33 33 33 33 32 32 30 27 25 23 24 25 23 23 21
29 29 29 31 31 31 32 33 32 32 32 32 31 30 28 25 22 24 24 24 23 22
27 29 30 29 30 32 31 32 32 31 31 32 30 30 28 24 23 25 25 24 24 22
29 29 28 31 31 31 31 30 31 30 31 30 31 29 27 24 27 26 26 25 23 23
32 29 29 30 30 30 30 31 31 30 31 30 31 28 27 26 25 26 26 25 24 25

GFSNIL_sfc_dewp_039.txt.gz
Dewpoint
40 39 41 39 37 37 38 38 35 35 35 34 34 34 35 35 35 36 38 37 38 38
40 40 39 38 36 38 36 34 35 34 33 33 33 34 34 35 35 36 36 36 37 37
39 38 39 38 35 36 34 34 33 33 32 32 33 34 35 35 35 35 36 35 33 33
39 42 36 36 36 35 35 34 32 32 31 31 32 33 32 33 33 33 32 31 32 31
38 37 36 36 35 35 33 34 32 31 31 33 33 31 31 32 31 30 30 30 29 29
39 36 35 35 36 34 34 33 31 31 32 33 33 30 31 30 31 31 30 30 29 28
37 34 34 34 33 34 33 32 31 32 33 35 33 31 31 30 30 28 26 26 25 24
37 36 35 35 34 35 33 31 32 32 33 33 32 30 32 29 27 25 25 26 24 23
38 37 33 33 33 33 33 32 32 32 33 33 28 32 31 28 25 24 23 23 24 22
35 32 33 31 30 30 30 31 32 32 33 32 31 32 31 29 23 23 23 24 23 22
34 31 32 31 31 31 32 31 32 31 31 32 32 32 31 28 22 22 24 24 23 22
32 30 31 31 32 31 29 31 31 31 30 31 31 32 30 25 23 24 24 25 24 24
32 31 32 34 31 31 30 30 31 30 31 30 30 32 30 27 25 25 26 25 23 23
33 33 33 31 30 29 29 29 30 30 30 30 30 29 31 29 25 25 25 25 24 23

GFSNIL_sfc_dewp_042.txt.gz
Dewpoint
46 45 44 42 40 40 39 38 37 36 35 34 35 34 33 35 36 36 36 34 35 37
43 41 40 40 41 39 38 35 37 35 34 34 34 35 36 35 34 35 35 35 35 36
42 42 42 43 40 38 37 36 35 33 32 32 33 35 34 33 33 33 33 33 32 32
44 44 41 42 39 38 36 35 35 35 31 31 31 33 32 32 33 32 31 31 31 31
40 38 38 38 36 37 35 37 35 32 31 32 33 32 31 31 31 30 30 30 29 29
37 37 38 38 37 35 35 34 32 31 31 32 33 31 32 31 31 31 30 29 25 26
38 37 37 35 34 34 34 32 31 31 32 34 33 32 32 30 31 30 27 26 25 24
39 37 37 36 35 36 33 32 31 32 33 34 33 31 32 31 29 27 26 26 24 24
40 35 35 34 35 35 33 32 31 31 34 33 31 32 34 31 28 26 24 23 23 23
35 34 34 33 32 31 30 30 30 32 32 33 33 33 34 32 26 24 24 23 24 22
32 32 33 34 33 34 32 31 32 32 33 32 31 33 33 31 24 23 23 24 24 23
33 33 35 37 37 34 33 31 31 31 32 31 31 34 33 29 24 23 24 25 25 24
37 38 37 34 33 33 31 30 30 29 30 32 30 33 33 29 26 25 25 25 25 26
35 34 33 32 31 29 29 28 28 29 29 29 29 29 33 32 26 25 25 25 25 24

GFSNIL_sfc_dewp_045.txt.gz
Dewpoint
51 50 49 47 46 42 39 37 36 38 38 38 35 35 35 36 36 36 35 34 35 35
50 47 45 44 44 42 39 37 39 40 36 36 35 35 36 36 34 34 34 34 34 35
47 43 43 44 42 39 39 40 38 36 37 36 36 36 36 33 33 33 34 33 32 32
44 43 42 41 40 39 39 37 38 40 37 35 33 35 33 32 33 33 32 31 31 31
43 42 40 39 38 37 37 39 40 38 34 33 33 33 33 32 32 31 30 30 29 29
43 41 41 40 38 40 39 36 34 33 33 33 33 33 32 32 32 31 31 30 29 26
41 42 42 39 37 36 36 33 32 33 33 34 34 33 32 31 31 31 31 29 26 25
39 39 38 37 35 36 35 33 33 32 34 34 34 33 33 31 31 30 28 27 26 25
39 37 36 36 36 34 33 31 33 36 33 33 31 33 34 33 30 29 27 26 24 24
35 34 35 35 35 35 37 38 37 33 33 32 32 34 35 35 29 27 25 24 23 23
35 34 35 36 38 38 38 35 31 31 31 31 31 34 34 34 28 25 25 24 25 24
36 36 38 39 39 38 34 31 30 30 30 30 30 33 34 33 27 24 24 24 25 25
38 40 39 37 34 32 31 31 30 29 29 30 29 31 33 33 27 25 25 24 25 29
37 35 33 32 30 29 28 28 28 28 28 28 29 29 32 34 28 27 27 26 25 25

GFSNIL_sfc_dewp_048.txt.gz
Dewpoint
55 54 52 50 47 44 40 39 38 39 40 42 40 36 37 36 36 36 36 34 35 36
54 52 51 50 46 42 40 38 39 44 42 37 37 39 37 36 36 35 34 34 34 34
52 51 50 48 45 43 41 40 43 42 36 38 40 37 36 35 34 33 34 34 33 34
49 48 49 48 46 44 41 43 41 37 39 39 36 35 35 33 33 34 32 33 32 32
48 48 48 46 43 43 41 39 39 42 38 35 33 34 34 34 32 33 32 31 31 31
47 46 43 42 41 39 39 40 38 37 35 34 34 34 35 34 33 32 31 31 30 30
45 44 41 41 39 39 38 36 36 36 34 35 37 34 34 32 32 32 31 31 30 29
44 41 39 37 37 38 37 34 34 36 39 37 35 32 33 32 31 30 30 30 28 27
39 38 37 35 35 35 34 36 40 39 39 37 34 33 35 34 31 30 30 28 27 26
36 35 35 35 35 36 39 40 39 39 37 33 32 33 35 35 32 30 29 28 26 24
35 36 37 38 39 40 40 39 38 34 32 31 30 33 34 34 32 30 28 27 25 24
37 38 39 39 39 40 39 35 32 30 30 30 29 32 33 32 30 29 27 26 25 25
39 41 40 38 37 33 31 31 30 29 29 30 29 31 32 32 29 28 27 26 25 29
35 34 32 31 30 29 28 28 28 28 28 28 28 29 32 33 30 29 28 27 26 26

GFSNIL_sfc_dewp_051.txt.gz
Dewpoint
57 57 56 55 53 50 50 47 45 44 41 41 41 43 40 40 38 40 39 40 39 35
58 57 57 55 54 52 48 43 43 42 41 43 41 40 41 40 38 39 40 39 38 36
57 57 57 55 52 49 46 43 43 42 43 40 40 42 40 38 38 38 39 36 37 36
57 56 55 53 51 48 45 42 43 43 39 39 43 40 37 37 37 36 36 36 36 35
54 53 52 51 48 46 43 43 43 40 40 42 38 37 37 37 35 35 35 35 35 34
51 50 50 47 45 44 43 41 40 41 41 38 38 37 37 36 36 37 35 35 35 34
49 48 45 44 43 42 41 41 41 40 41 40 37 36 36 37 36 35 34 35 35 34
45 43 41 40 40 41 40 39 37 37 39 39 38 37 37 37 36 35 35 35 34 34
39 38 37 37 36 36 39 38 41 41 40 40 39 37 37 36 35 34 33 33 33 33
36 35 36 37 39 40 41 42 41 41 41 41 40 36 35 35 33 34 34 33 32 31
38 38 40 40 41 41 41 41 41 40 39 37 33 33 34 34 33 32 32 33 32 32
39 40 40 40 40 41 39 39 37 34 33 33 32 33 33 32 32 32 31 31 31 31
40 38 37 37 35 34 33 31 30 30 31 31 31 32 32 32 33 33 32 31 30 30
31 30 31 31 31 30 29 30 31 31 31 31 31 31 32 32 32 34 33 31 30 30

GFSNIL_sfc_dewp_054.txt.gz
Dewpoint
60 60 59 58 58 57 55 53 53 51 50 48 44 42 43 44 40 40 40 40 39 33
60 60 59 59 58 57 54 53 50 49 47 45 43 44 42 43 42 41 41 40 40 36
59 60 59 59 58 55 52 48 47 46 46 45 43 42 44 43 41 41 43 40 38 37
59 59 58 58 57 53 50 47 46 45 46 42 42 44 42 41 39 39 41 39 36 35
58 57 57 55 53 50 46 46 46 45 42 40 43 42 40 39 40 41 37 36 35 34
54 53 52 50 48 46 45 44 44 42 40 41 41 39 41 41 41 39 37 37 35 34
51 50 49 47 46 46 45 44 42 42 42 41 41 42 42 40 39 39 37 36 35 34
47 46 45 45 45 44 43 41 42 41 41 41 40 39 39 39 40 39 36 36 34 35
42 41 42 42 42 40 39 39 39 39 41 40 39 38 39 39 39 35 34 33 33 33
39 38 39 39 39 39 40 41 41 41 41 41 41 39 38 36 33 32 33 33 32 29
39 39 41 42 42 43 42 42 42 41 40 38 35 34 34 34 33 32 31 31 30 30
40 40 40 41 41 41 39 38 36 34 33 32 32 34 34 32 30 29 29 28 29 29
39 38 37 36 35 34 33 30 29 28 29 30 30 32 34 32 33 33 33 32 30 30
31 31 31 30 30 30 30 31 33 32 32 30 30 29 31 32 29 28 29 29 30 32

GFSNIL_sfc_dewp_057.txt.gz
Dewpoint
60 60 60 59 58 59 58 59 57 54 54 53 49 46 48 49 46 43 42 41 42 39
62 62 61 61 61 60 60 57 56 54 52 48 48 49 48 46 43 43 42 42 44 42
62 62 61 61 60 59 59 56 54 51 49 48 48 47 45 44 44 42 44 43 41 42
61 60 60 60 59 59 56 52 50 48 48 46 46 45 44 42 41 41 42 39 40 43
61 59 59 58 57 54 52 49 48 48 46 45 44 44 43 40 40 40 39 40 43 40
56 55 54 51 50 49 47 47 47 45 43 43 44 42 41 40 40 41 42 43 40 39
53 51 50 48 47 46 46 45 45 43 43 43 42 40 40 41 42 42 41 41 40 39
49 48 48 47 46 46 45 43 42 43 42 41 41 41 42 42 40 41 41 41 39 38
46 46 47 46 45 44 43 42 42 41 41 41 40 39 38 39 41 39 36 34 33 33
44 43 43 42 41 41 41 42 42 41 41 41 41 39 39 38 38 33 32 32 32 29
41 41 41 41 42 43 43 43 43 42 41 41 37 38 35 34 32 30 29 29 29 31
42 41 41 41 41 41 41 40 37 34 33 32 31 34 34 32 32 31 31 30 30 29
40 40 40 39 38 35 33 30 28 27 28 30 30 32 31 28 27 27 27 26 25 27
36 35 35 33 31 29 28 30 33 30 30 26 27 27 29 30 25 27 27 27 27 27

GFSNIL_sfc_dewp_060.txt.gz
Dewpoint
59 59 60 61 59 59 59 59 59 59 56 54 53 51 49 49 49 48 45 40 42 42
60 60 59 60 60 60 60 59 58 56 54 51 50 49 50 49 44 42 43 44 43 43
60 61 60 62 61 60 59 57 56 54 51 49 49 49 46 44 44 43 44 43 43 42
61 62 61 61 60 59 56 54 54 51 49 48 47 46 45 43 42 41 42 42 42 41
61 61 59 58 57 56 53 52 50 48 47 46 45 44 43 41 40 41 41 41 39 41
57 55 53 51 50 49 49 48 48 47 45 44 44 43 42 41 41 41 40 40 42 43
52 51 49 49 48 48 47 46 44 44 44 44 43 42 41 41 41 42 42 42 41 41
49 50 48 47 47 46 45 44 43 43 43 42 42 40 41 42 43 41 41 41 41 41
49 48 48 46 45 44 43 43 43 42 41 41 41 40 40 40 40 40 40 38 34 34
48 46 46 45 44 43 43 43 42 41 41 42 41 38 39 38 40 36 33 32 32 30
44 43 43 42 42 43 43 43 43 42 42 41 39 38 35 33 32 31 32 32 31 29
42 42 42 42 43 43 42 42 41 41 37 34 32 31 30 30 30 28 27 26 27 27
42 42 41 41 41 41 39 34 31 31 34 32 28 31 30 27 27 26 26 25 24 27
40 40 39 37 35 33 32 35 33 31 29 30 29 28 27 25 25 24 23 22 22 23

GFSNIL_sfc_dewp_063.txt.gz
Dewpoint
55 58 56 56 57 57 58 58 58 58 57 56 53 52 52 50 50 48 47 44 44 43
56 57 58 56 58 58 58 59 57 58 56 54 52 50 50 49 47 46 44 44 44 43
58 58 58 58 58 59 59 58 57 55 52 50 50 50 48 46 44 43 44 44 43 43
58 58 58 60 60 58 56 55 54 52 50 49 49 47 46 44 43 43 43 43 42 42
60 59 59 58 58 56 54 54 51 50 49 48 46 45 44 42 42 41 41 41 41 40
57 55 54 52 52 52 50 49 48 48 46 45 44 43 43 42 42 41 41 41 41 41
52 50 49 50 49 48 48 47 46 45 45 45 44 43 42 41 41 41 41 42 42 41
49 49 48 47 46 46 45 44 44 44 44 44 43 41 41 41 41 42 41 41 41 41
48 47 46 45 45 44 43 43 43 43 42 41 41 39 39 41 41 40 40 38 34 33
47 46 45 44 43 43 43 42 41 39 40 40 40 39 39 38 39 38 32 31 31 28
46 44 44 43 42 42 41 40 39 39 40 40 40 37 37 35 31 30 28 28 27 27
43 41 42 41 42 43 42 41 41 41 35 30 28 31 31 28 26 26 26 25 25 24
42 42 42 42 41 41 41 40 34 32 30 29 28 30 30 27 25 23 22 23 23 25
42 41 41 40 37 35 33 30 28 29 29 28 27 27 27 25 23 23 23 23 22 22

GFSNIL_sfc_dewp_066.txt.gz
Dewpoint
53 54 53 53 54 54 55 56 59 58 57 57 55 54 52 52 52 50 49 48 47 45
54 54 54 55 55 56 57 57 57 57 57 56 55 51 51 51 49 48 48 46 45 44
52 54 57 56 57 57 58 58 57 57 56 54 52 51 50 49 47 46 45 45 44 43
54 57 58 58 58 58 58 59 58 56 53 51 51 49 48 46 45 44 43 43 43 43
58 59 59 59 58 58 57 55 54 53 51 50 49 47 46 44 44 43 42 42 42 42
58 58 58 57 57 56 54 52 51 51 49 48 46 45 44 43 43 43 43 42 41 41
59 59 57 54 53 52 51 49 49 49 47 45 45 44 43 43 42 42 41 42 42 43
53 53 52 51 50 49 48 48 47 45 45 44 44 43 42 41 41 41 42 42 41 40
50 49 49 49 47 46 45 45 44 44 44 43 42 39 39 40 42 41 40 38 32 31
48 47 47 46 46 44 44 44 43 43 42 41 41 39 39 38 39 36 31 28 27 25
47 46 45 44 43 43 42 42 41 40 39 39 39 38 37 34 30 28 28 26 24 23
45 44 43 43 42 41 40 39 39 38 35 33 35 35 32 28 26 24 23 23 23 24
44 43 42 42 41 40 40 40 39 33 30 29 29 31 30 26 24 21 20 22 22 23
42 42 41 41 41 39 35 34 31 28 28 27 28 27 26 24 22 22 23 22 21 21

GFSNIL_sfc_dewp_069.txt.gz
Dewpoint
48 49 51 53 53 53 53 53 55 57 58 57 56 56 54 54 52 52 51 49 49 49
50 50 52 53 54 54 55 55 55 56 57 57 56 56 55 54 51 50 49 49 49 46
50 52 53 54 54 55 55 57 57 57 57 56 56 53 53 51 49 49 47 46 46 44
51 53 54 54 55 56 57 58 57 57 57 56 54 53 51 49 47 46 45 45 45 43
52 53 54 55 57 57 58 58 58 57 55 53 51 50 49 46 46 45 44 44 43 43
53 53 54 57 57 58 57 56 55 55 53 51 50 48 47 47 45 44 43 43 43 43
54 55 56 58 58 58 55 54 52 52 51 49 47 47 46 45 44 43 43 43 42 42
55 56 58 57 55 52 52 51 50 48 47 46 45 45 44 43 43 42 42 42 42 39
55 55 55 53 51 50 49 48 47 46 45 45 44 40 40 41 41 41 42 38 32 31
53 51 50 50 49 48 47 46 45 45 44 42 42 39 39 39 41 38 34 30 28 24
50 49 48 48 46 45 45 44 43 43 43 42 40 38 37 34 31 29 27 25 24 23
48 47 46 45 44 44 44 44 42 42 41 39 39 35 32 29 28 23 22 23 23 23
47 45 44 44 43 42 42 41 39 35 35 35 33 32 31 27 24 21 21 22 21 23
45 44 44 42 41 41 40 35 32 28 29 29 29 29 28 25 22 21 21 21 20 20

GFSNIL_sfc_dewp_072.txt.gz
Dewpoint
49 49 49 49 50 51 50 50 52 54 55 55 55 54 54 53 54 54 53 52 51 51
50 49 49 51 52 52 52 53 52 53 54 55 56 55 55 55 54 52 52 51 50 50
50 50 50 51 52 53 54 53 53 54 54 55 55 55 56 56 55 53 50 50 49 48
50 51 51 52 53 54 54 54 55 55 56 56 56 55 54 53 51 51 48 48 47 46
51 51 51 52 52 53 54 55 56 56 56 56 55 52 52 50 49 49 47 47 46 44
51 50 50 51 52 54 55 55 56 57 56 55 53 52 51 50 49 48 48 46 45 43
50 50 50 51 53 55 56 56 56 55 54 52 50 50 49 48 48 46 46 45 44 43
50 50 50 53 55 55 56 56 56 54 52 52 50 49 48 46 45 44 44 44 42 41
51 52 53 54 55 56 56 55 52 50 49 47 46 41 42 43 44 43 43 37 34 34
52 53 54 55 54 52 52 50 48 46 46 46 45 40 41 40 43 42 36 32 28 27
54 54 51 50 50 49 48 48 47 45 45 44 41 39 39 37 35 33 31 29 27 27
53 50 49 48 46 46 46 45 44 43 43 41 38 36 34 32 29 26 24 24 24 23
49 48 47 46 44 45 44 42 41 40 40 37 35 34 33 29 26 23 23 22 22 24
48 47 46 44 43 42 39 36 34 33 33 33 33 32 31 28 25 23 21 19 18 21

GFSNIL_sfc_dewp_075.txt.gz
Dewpoint
52 51 51 51 50 52 52 53 54 56 56 56 57 58 59 59 59 59 58 57 56 55
53 52 52 52 53 54 54 54 54 55 55 56 57 57 58 59 58 59 58 58 57 54
52 53 53 54 54 54 55 54 54 54 54 54 56 57 58 58 58 57 55 55 54 52
53 53 53 53 53 53 55 54 55 55 55 55 56 57 57 58 57 57 56 53 53 51
53 53 53 53 53 54 54 54 55 54 55 55 55 56 56 56 55 54 52 51 51 50
54 53 53 53 53 53 53 54 54 55 55 56 57 57 57 55 53 52 52 51 50 49
53 53 53 53 53 54 54 54 54 55 55 56 57 56 54 53 52 51 51 49 49 47
53 53 53 53 53 53 54 54 54 55 55 56 55 53 52 53 51 49 46 46 45 45
52 52 52 52 53 53 54 54 55 56 55 54 53 45 45 49 48 46 44 41 39 39
52 51 52 52 52 54 55 56 55 55 54 52 51 42 43 43 46 44 40 37 34 32
52 52 52 53 54 55 56 55 53 50 50 48 46 40 40 40 41 37 35 34 33 31
52 53 53 54 53 51 50 49 47 46 45 43 40 38 37 36 34 32 30 30 29 26
54 51 50 48 48 47 47 45 43 42 42 39 37 35 35 34 31 29 27 26 26 26
51 50 49 47 45 44 41 38 36 35 36 35 35 34 34 33 31 28 24 22 22 24

GFSNIL_sfc_dewp_078.txt.gz
Dewpoint
56 55 56 57 55 54 53 53 54 55 55 56 56 56 57 59 58 58 59 58 58 57
56 56 55 56 56 55 54 53 55 57 56 56 56 55 56 57 57 57 58 59 59 59
54 55 55 56 56 56 56 55 56 56 56 56 55 55 55 55 55 56 58 60 58 58
54 55 56 56 56 56 56 55 54 54 54 53 53 53 55 55 55 55 57 58 58 56
55 54 56 57 57 58 56 56 54 53 52 52 52 54 54 55 56 56 57 56 55 55
56 54 54 54 55 54 54 54 53 53 54 53 54 53 54 56 56 56 54 55 54 53
55 55 54 54 53 54 53 52 52 54 54 54 53 52 55 56 57 57 56 55 53 52
54 54 54 54 54 54 54 52 52 54 54 55 54 54 55 56 56 56 55 53 52 51
54 53 53 54 54 54 55 53 54 54 54 55 54 48 47 52 56 55 52 48 46 46
54 54 54 53 53 53 53 54 54 55 54 54 55 45 44 44 56 53 50 45 40 39
53 53 53 53 53 54 54 54 55 55 54 54 55 43 43 42 50 46 43 40 39 35
52 52 52 52 53 54 54 55 55 56 55 54 48 40 39 42 39 36 35 35 34 33
52 52 52 53 53 54 55 54 48 44 45 42 41 39 39 39 35 32 31 31 31 32
53 54 54 54 52 49 44 41 38 36 37 37 37 36 36 35 33 31 29 28 28 30

GFSNIL_sfc_dewp_081.txt.gz
Dewpoint
57 57 56 55 53 53 52 51 52 53 52 54 55 55 58 59 58 61 60 60 58 56
57 57 56 56 56 54 53 51 53 53 53 54 55 56 57 58 57 58 57 59 60 58
57 57 57 58 57 57 56 56 54 55 54 54 54 55 56 56 57 57 58 59 58 58
57 57 58 58 59 58 58 57 55 55 55 54 55 56 56 56 56 56 57 57 57 57
58 57 58 57 58 59 58 57 55 55 55 55 55 56 55 56 55 55 55 56 57 58
58 57 57 57 57 58 57 56 56 55 55 54 55 55 56 56 55 55 55 56 57 57
57 57 56 57 57 57 57 56 56 55 55 55 54 54 54 54 55 55 55 57 57 55
57 56 55 56 56 57 57 56 56 56 56 56 55 54 55 54 55 54 56 57 56 56
55 55 56 56 56 56 56 56 56 55 55 55 53 47 45 50 55 55 56 55 55 53
55 55 56 55 55 55 56 56 55 55 54 55 55 45 44 43 53 55 56 54 54 48
55 55 55 55 54 55 56 56 56 56 56 56 55 44 44 43 53 54 54 54 49 45
54 54 55 55 56 56 56 56 56 56 56 56 56 41 42 44 50 43 39 38 38 38
53 54 54 55 56 56 56 56 55 54 51 44 51 41 40 42 39 35 33 34 34 33
52 53 54 55 56 56 53 47 43 39 37 37 39 39 38 38 37 33 31 30 31 31

GFSNIL_sfc_dewp_084.txt.gz
Dewpoint
55 53 52 52 51 49 49 49 52 53 54 54 55 56 57 56 55 57 57 56 56 55
56 55 54 53 52 51 50 49 50 53 53 52 54 54 54 56 55 55 56 55 56 55
56 56 55 55 53 52 51 50 51 52 52 53 53 53 53 54 55 55 56 57 56 55
56 57 57 56 55 53 52 52 51 51 51 52 52 52 52 52 52 54 54 55 55 55
56 56 57 57 56 55 53 52 51 51 50 51 51 52 52 51 50 51 53 54 55 55
57 56 56 56 57 57 55 54 53 52 52 51 52 51 52 51 52 52 52 53 54 54
56 57 56 56 56 57 58 57 56 55 54 53 53 53 52 52 53 53 53 53 54 54
56 56 56 57 57 56 57 57 56 55 55 54 54 53 53 52 53 53 54 54 53 53
54 55 56 56 56 56 56 56 56 55 55 54 53 47 45 50 53 52 52 52 53 53
53 54 56 55 55 55 56 56 55 55 54 54 54 46 44 43 52 53 53 53 53 52
55 53 54 55 55 55 55 55 55 55 55 55 54 45 43 42 50 52 52 52 51 51
55 54 54 54 55 55 55 55 55 55 54 54 54 44 42 43 50 52 44 40 40 42
54 54 55 55 55 55 55 55 55 54 50 43 52 40 40 43 44 37 34 33 34 34
53 54 54 55 55 56 55 51 44 38 37 40 41 40 39 39 37 35 32 31 31 32

GFSNIL_sfc_dewp_087.txt.gz
Dewpoint
53 51 50 48 47 48 50 49 52 54 55 54 55 56 56 56 56 56 56 55 55 55
54 52 51 50 48 48 49 50 51 53 55 55 55 55 56 55 55 55 55 55 55 55
54 53 52 51 50 49 48 50 50 52 53 53 54 54 54 55 55 54 54 55 55 54
56 54 53 52 51 51 50 50 49 50 52 52 52 53 53 52 53 54 53 54 55 54
55 56 55 54 53 52 51 50 49 50 51 52 52 52 52 52 51 52 53 53 54 54
54 55 56 55 55 54 52 51 50 50 50 50 50 50 51 51 51 51 51 52 53 53
53 54 55 57 56 56 55 53 51 50 50 49 49 49 50 50 51 51 50 51 51 53
55 55 55 54 55 56 56 55 53 51 50 49 48 47 49 50 50 51 50 51 51 52
56 56 55 55 55 55 56 57 55 54 53 51 50 45 44 47 50 50 50 51 52 53
54 55 56 56 56 55 55 55 57 56 56 55 54 46 44 43 52 52 52 52 52 52
52 54 55 55 55 55 56 55 55 55 56 55 55 45 44 42 50 52 52 52 52 52
55 54 54 54 55 55 55 55 55 55 55 55 55 45 44 43 50 51 52 46 42 49
48 55 55 55 54 55 55 54 54 55 55 52 55 44 44 44 52 50 37 34 35 35
43 45 48 53 55 55 55 55 51 43 37 37 37 39 39 41 43 43 34 32 31 33

GFSNIL_sfc_dewp_090.txt.gz
Dewpoint
53 51 50 50 51 51 51 51 51 51 50 51 53 53 53 53 54 53 55 54 54 54
53 51 51 50 50 51 51 51 52 53 51 52 53 55 55 54 53 53 54 54 54 55
54 52 51 51 48 49 50 51 51 53 53 53 53 54 55 54 54 54 54 55 54 55
55 53 52 51 49 48 49 50 50 51 53 54 54 54 54 54 54 54 53 54 54 54
55 54 53 51 51 50 48 49 49 50 51 52 53 53 53 52 52 53 53 53 53 53
56 55 53 53 52 51 50 49 49 49 49 50 51 51 51 52 51 51 53 53 53 52
54 55 55 54 54 53 52 51 50 49 49 49 49 50 50 51 50 51 51 51 52 52
54 54 54 56 55 55 54 52 51 50 49 49 49 49 49 50 49 50 50 50 51 51
54 54 54 54 56 55 55 55 53 51 51 50 49 45 42 46 48 48 48 49 49 50
55 55 55 55 55 55 56 56 55 54 52 51 51 44 42 41 47 47 48 48 49 49
55 56 56 55 55 55 55 55 55 55 55 54 53 45 43 40 46 47 48 49 49 50
48 51 54 56 56 56 55 55 55 55 56 56 55 46 45 44 49 49 50 51 51 52
43 46 47 48 53 56 56 56 56 56 56 52 56 48 44 45 53 52 51 51 41 37
37 39 40 43 44 45 49 56 55 53 40 37 35 37 38 42 50 51 49 43 33 33

GFSNIL_sfc_dewp_093.txt.gz
Dewpoint
53 52 52 52 53 53 53 53 54 54 55 55 55 55 54 54 53 54 53 51 52 52
53 52 51 51 52 53 53 52 52 52 52 54 54 55 55 54 53 53 53 53 53 52
53 52 51 50 51 51 51 51 51 51 51 51 53 54 55 54 53 53 53 53 54 54
53 52 51 51 50 50 51 51 51 51 51 51 51 53 53 52 53 52 51 53 53 53
54 53 52 51 50 49 50 50 50 51 51 51 52 52 52 52 53 52 51 52 52 52
54 54 52 52 51 49 49 49 50 50 50 51 51 53 53 52 52 53 53 53 52 52
55 54 53 53 52 51 50 48 48 49 49 50 51 51 52 52 52 51 52 52 52 52
55 55 55 54 53 52 52 50 49 49 49 49 49 49 50 50 50 50 50 51 51 52
55 55 54 55 54 54 53 52 51 50 49 49 48 44 42 46 49 49 49 49 50 50
55 55 55 55 55 56 55 54 53 52 51 50 50 43 43 42 48 48 49 49 48 49
48 50 54 55 55 55 55 56 55 55 54 53 52 44 42 41 47 48 48 48 48 48
42 45 46 49 51 55 55 55 56 56 56 55 54 46 43 42 48 48 48 48 48 48
37 39 40 42 44 46 49 54 56 55 55 49 48 36 37 42 51 49 49 49 48 42
32 34 34 36 38 40 43 44 40 37 34 33 32 34 35 36 39 48 48 47 43 33

GFSNIL_sfc_dewp_096.txt.gz
Dewpoint
52 52 52 52 53 54 54 55 57 57 56 55 55 55 55 53 54 54 54 53 51 52
52 52 52 51 52 54 54 54 54 55 54 53 53 55 54 54 53 54 54 53 53 51
53 52 51 52 51 52 53 53 53 53 54 54 53 54 54 54 53 53 53 53 52 52
52 52 51 51 50 51 51 51 53 53 52 53 53 54 54 54 54 52 52 53 53 52
53 52 51 50 50 50 51 51 51 52 52 51 52 53 54 54 54 54 52 52 52 51
54 52 51 51 50 49 50 50 50 51 51 52 52 51 52 52 52 52 53 53 52 51
54 54 52 51 51 49 49 49 50 50 51 51 51 52 52 51 51 52 52 52 52 51
54 54 53 52 52 51 50 49 49 49 50 50 51 51 51 52 52 51 51 51 52 52
55 55 55 54 53 52 51 50 49 48 49 49 49 45 44 48 51 51 51 51 51 51
53 55 55 55 54 53 52 52 51 50 50 49 49 43 42 42 49 49 50 50 49 49
44 46 47 51 54 55 55 54 53 53 52 52 51 44 42 41 47 48 48 49 49 49
39 40 41 42 43 45 46 53 55 56 55 54 52 36 39 41 48 49 49 50 49 49
34 35 35 37 38 40 43 44 44 39 35 35 35 35 36 37 45 48 48 48 48 38
32 32 33 34 35 36 37 37 34 32 32 31 32 33 35 35 39 39 35 33 32 32

GFSNIL_sfc_dewp_099.txt.gz
Dewpoint
56 55 54 54 53 55 55 55 58 59 59 58 57 57 56 55 55 54 55 54 54 54
55 55 54 55 55 55 56 56 58 57 57 57 56 56 55 54 53 54 55 54 54 54
55 55 55 55 55 55 55 56 56 56 55 55 55 55 55 54 53 53 54 55 55 54
55 55 55 55 55 55 55 55 55 55 55 54 54 55 55 53 53 52 51 53 55 54
55 54 54 54 54 55 55 54 55 55 54 54 54 55 55 54 53 52 51 52 53 52
55 54 54 53 53 54 54 54 54 54 53 53 54 54 55 54 54 54 53 53 52 52
55 54 54 54 53 53 53 53 53 54 54 55 53 53 53 54 54 54 54 55 55 53
55 55 54 54 54 53 52 52 53 53 53 53 53 53 53 52 52 53 53 54 54 55
55 55 55 54 55 54 53 52 52 51 52 52 51 45 45 50 53 52 52 52 53 53
49 50 52 55 54 54 54 54 53 52 52 52 52 43 43 43 52 52 53 53 53 52
42 42 44 45 46 47 50 54 54 53 53 52 44 37 40 41 49 51 51 52 52 52
37 37 39 40 41 42 45 44 40 39 41 44 36 35 36 39 46 48 49 50 50 44
34 35 36 37 38 40 40 37 36 34 33 33 33 34 36 37 44 46 45 35 34 33
32 33 33 34 35 36 36 34 33 31 30 30 31 32 33 36 39 38 33 31 29 30

GFSNIL_sfc_dewp_102.txt.gz
Dewpoint
59 58 57 56 54 55 55 56 57 59 60 60 59 58 57 56 56 56 56 57 55 54
59 58 56 56 57 56 56 55 57 59 59 59 59 59 59 58 56 56 56 57 57 55
58 58 57 57 56 57 57 57 58 58 58 58 57 57 57 56 55 55 55 55 55 55
58 58 57 56 57 56 57 57 57 57 57 56 56 56 55 55 54 54 54 54 53 53
58 57 56 56 57 56 55 56 56 56 56 55 56 56 56 55 54 53 53 53 53 52
57 56 55 55 56 56 55 55 55 55 56 55 55 56 55 55 54 54 53 53 52 52
55 55 55 55 55 55 55 54 54 54 55 56 56 55 55 55 54 54 53 54 53 53
55 55 54 54 54 55 55 54 54 54 55 55 55 54 55 55 55 54 55 55 54 54
56 55 55 55 54 54 54 54 54 53 54 55 53 47 46 51 55 55 54 55 55 55
47 49 50 54 55 55 55 55 53 53 53 53 51 37 41 43 54 55 55 55 54 54
40 41 43 44 45 47 49 47 50 48 53 44 37 36 36 38 47 51 52 54 51 51
37 38 39 40 41 43 42 39 37 37 38 37 35 35 35 38 47 48 50 38 35 37
36 37 37 38 39 38 37 35 34 32 33 33 32 33 35 39 44 45 35 32 32 32
33 34 35 36 36 35 34 33 32 31 31 31 31 31 32 34 36 33 30 29 28 30

GFSNIL_sfc_dewp_105.txt.gz
Dewpoint
60 59 58 58 55 55 56 57 58 59 61 61 60 59 58 58 58 58 58 58 58 57
61 59 58 58 57 56 57 56 58 58 58 60 60 59 58 57 56 57 57 58 59 56
59 60 58 58 57 57 57 56 57 58 58 60 60 59 58 57 56 57 57 57 57 57
60 59 58 57 57 57 58 56 56 57 58 58 58 58 58 58 57 56 56 55 56 56
60 59 58 56 57 57 57 56 56 57 57 57 57 57 56 55 55 55 54 54 54 54
59 58 57 56 57 56 55 56 55 56 56 55 56 56 56 56 55 55 55 55 54 54
58 58 57 55 56 56 56 55 55 55 56 56 55 55 55 55 55 55 55 55 55 54
58 58 57 55 55 56 56 55 55 55 56 56 56 54 55 55 55 54 54 55 53 54
56 55 56 55 55 55 55 54 55 55 56 56 54 38 44 51 54 54 54 53 54 54
47 48 49 54 54 54 55 55 55 55 55 49 40 37 38 40 53 56 55 55 54 54
41 42 44 45 46 46 45 44 44 44 43 40 35 35 36 36 50 52 51 42 41 44
39 38 39 39 39 40 38 36 36 36 36 35 34 35 36 39 47 47 37 34 34 36
37 38 37 37 36 36 35 34 33 32 32 33 31 33 35 41 45 35 32 31 31 32
35 36 36 37 36 35 33 33 32 31 31 31 32 31 33 34 33 31 30 29 29 30

GFSNIL_sfc_dewp_108.txt.gz
Dewpoint
62 61 60 60 59 58 58 59 60 61 61 61 60 59 59 59 58 58 58 57 56 56
62 61 60 60 59 59 59 58 59 60 61 60 60 59 59 58 58 58 58 58 57 57
61 61 61 60 59 59 59 57 58 58 59 60 60 59 58 58 57 57 57 58 57 57
60 61 61 59 59 59 58 57 57 57 58 59 59 59 58 57 56 56 56 57 57 57
60 60 60 59 59 58 57 57 57 58 58 58 58 58 58 57 56 56 56 56 56 56
60 60 59 58 58 57 57 57 57 57 57 57 57 57 57 56 56 56 55 55 55 55
59 59 59 59 57 57 57 56 56 56 57 57 56 56 56 56 55 55 55 55 55 55
59 59 59 58 57 57 56 56 56 56 56 56 55 52 56 56 55 55 55 55 55 55
53 56 57 57 56 57 56 55 55 55 56 55 42 38 39 49 55 54 54 54 54 54
43 45 48 54 54 53 53 55 54 54 45 40 38 37 38 38 53 54 51 48 49 52
39 40 40 42 42 42 42 42 42 41 40 38 35 35 37 37 51 43 39 38 41 43
37 37 36 36 36 36 35 34 34 34 34 34 34 35 36 42 43 37 34 33 34 34
36 35 35 34 34 35 34 33 32 31 32 32 32 34 35 39 36 32 30 31 31 32
34 35 35 34 34 35 34 33 32 32 31 31 32 32 34 34 32 31 30 29 29 31

GFSNIL_sfc_dewp_111.txt.gz
Dewpoint
60 61 60 59 60 59 59 59 60 61 60 59 58 58 57 58 58 57 58 57 57 57
62 61 60 60 60 59 59 58 60 60 60 60 58 58 58 58 58 57 57 57 57 57
62 61 61 60 59 58 58 58 58 60 59 59 59 59 58 57 58 58 57 57 57 56
61 60 61 60 59 59 58 57 57 57 59 59 59 59 58 58 57 57 57 57 57 56
60 61 60 59 58 58 57 57 56 57 57 59 59 59 58 57 57 57 56 56 57 57
58 59 59 59 57 57 57 57 57 57 57 58 59 58 58 57 56 56 56 56 56 56
58 59 59 58 57 57 57 57 57 58 57 57 57 57 57 57 57 56 56 56 56 56
47 58 58 58 57 57 57 57 57 57 57 57 57 53 57 56 55 55 55 55 55 55
42 44 53 57 57 56 56 56 56 56 55 46 42 38 40 52 55 55 55 55 55 55
38 40 41 43 50 52 54 53 52 48 44 40 39 37 39 39 55 54 50 49 52 52
37 37 38 38 36 37 39 39 39 38 38 36 35 36 37 41 44 40 38 39 41 42
35 36 37 35 34 35 34 33 33 34 34 34 34 36 38 41 38 34 33 33 34 35
34 34 34 34 34 34 34 32 32 32 32 33 33 35 36 36 34 31 31 31 32 33
32 32 32 34 34 33 33 32 32 30 30 31 32 32 34 34 32 31 30 30 30 31

GFSNIL_sfc_dewp_114.txt.gz
Dewpoint
62 61 61 60 60 60 60 60 60 61 60 58 57 58 57 56 57 58 58 57 57 56
62 61 60 60 60 60 60 60 60 61 59 58 57 57 57 56 57 58 58 57 57 56
61 61 61 60 60 59 59 59 59 60 59 59 58 58 57 56 57 57 57 57 57 56
61 61 60 60 60 59 59 59 59 59 60 59 57 58 57 57 57 57 57 57 57 56
59 59 60 60 59 59 59 59 59 59 59 59 58 58 57 57 57 57 57 57 56 56
50 59 59 59 59 59 58 58 57 58 58 58 59 58 58 58 57 57 57 57 57 57
45 49 59 58 58 58 58 57 57 57 57 58 59 59 58 57 57 57 56 56 56 56
41 43 46 57 57 58 57 57 57 57 57 57 58 56 58 57 57 56 56 56 56 56
39 40 40 43 53 57 57 57 57 57 56 51 45 38 40 52 56 56 55 55 55 56
37 38 38 38 39 40 44 49 48 47 46 42 39 37 39 39 56 55 54 54 54 54
35 36 37 37 35 35 35 36 37 36 37 37 37 36 38 40 45 41 40 39 41 44
33 34 34 34 34 34 33 33 32 32 33 33 34 36 38 40 38 34 33 33 34 35
32 32 33 33 33 33 33 33 32 31 32 32 32 35 35 35 34 32 31 31 32 33
29 30 31 32 32 32 32 33 32 31 31 31 32 32 34 34 32 31 30 30 30 32

GFSNIL_sfc_dewp_117.txt.gz
Dewpoint
55 63 62 61 61 61 61 61 61 61 61 60 58 58 58 58 57 58 58 57 57 57
56 60 61 61 61 61 61 60 60 61 61 59 58 59 57 57 56 57 57 57 57 56
55 58 62 61 60 60 60 60 59 61 60 59 58 58 57 56 56 56 57 58 57 56
50 59 62 61 60 60 60 59 59 60 59 58 58 57 57 56 56 56 56 57 57 56
46 50 61 60 60 59 59 59 59 60 60 59 58 57 57 56 56 56 55 56 57 56
43 45 48 58 59 59 59 59 59 60 59 59 58 57 57 57 56 56 56 57 56 56
40 42 43 48 58 59 59 59 59 59 59 59 58 57 57 57 57 57 57 57 57 57
38 40 40 42 44 55 58 58 58 58 59 58 58 58 58 58 57 57 57 57 57 57
36 37 38 38 39 38 41 52 57 57 57 56 47 39 45 54 57 56 56 55 56 56
34 35 36 36 36 36 35 37 38 42 44 41 38 37 39 43 57 56 56 55 55 55
32 33 34 35 34 35 36 34 34 35 36 37 35 38 39 38 50 44 41 41 43 50
31 31 31 32 33 34 34 34 33 33 33 34 34 35 36 39 38 35 34 34 35 37
28 29 29 31 31 33 33 32 33 32 32 33 32 35 35 34 33 32 32 32 32 34
27 28 28 29 30 30 31 31 32 31 31 31 32 32 35 34 33 32 30 30 30 32

GFSNIL_sfc_dewp_120.txt.gz
Dewpoint
51 55 59 62 61 61 61 61 62 62 62 62 61 61 60 60 60 60 59 58 58 57
49 52 56 60 61 61 60 58 59 61 61 61 61 60 59 60 59 58 58 58 58 57
46 48 51 57 62 60 60 60 61 61 61 61 60 59 59 59 58 57 57 57 57 57
43 45 48 58 60 61 59 60 60 60 60 60 59 59 59 58 57 56 56 56 57 56
42 43 45 47 53 60 59 59 59 59 60 59 59 59 58 57 56 55 55 56 56 56
39 40 41 44 46 54 59 59 59 60 60 59 58 58 58 57 56 56 55 55 56 56
37 38 39 41 42 43 47 58 59 59 59 59 59 58 58 57 56 55 55 56 56 56
35 37 37 39 39 40 40 42 44 58 59 59 59 58 58 57 56 56 55 56 57 57
33 34 35 36 37 37 38 38 38 40 45 51 44 40 45 53 56 57 56 56 57 57
31 32 33 34 34 35 36 36 36 36 36 37 37 37 43 43 57 56 56 56 56 56
29 30 31 32 32 33 34 34 34 34 35 35 35 36 38 41 50 46 40 40 43 53
28 28 29 29 31 32 32 32 32 32 32 33 33 35 35 36 36 34 33 33 34 35
27 27 28 29 29 31 31 31 30 30 30 31 31 33 35 35 33 32 31 32 32 33
25 26 27 28 29 29 30 30 30 30 30 30 30 31 32 34 32 32 31 31 31 32

GFSNIL_sfc_dewp_123.txt.gz
Dewpoint
50 52 54 57 61 63 63 64 63 63 64 64 63 63 63 63 63 63 62 62 61 60
47 48 49 52 56 61 64 64 64 64 63 64 63 63 62 62 62 61 61 61 61 60
43 45 47 50 53 58 62 63 63 63 63 63 63 62 61 60 61 60 61 60 59 59
40 42 44 46 47 50 59 62 61 61 61 61 62 61 60 59 60 60 59 59 58 58
39 40 41 42 44 45 48 61 61 61 61 61 61 60 59 59 59 59 58 58 58 57
37 38 39 40 41 43 44 47 58 60 60 60 60 60 59 59 59 58 58 57 57 57
36 36 37 38 39 40 41 42 43 46 57 59 59 59 59 59 58 58 58 57 57 57
34 35 36 36 37 37 38 39 41 40 41 41 44 39 40 55 58 57 57 56 57 58
32 32 34 35 35 35 35 35 36 37 38 37 37 36 37 41 56 57 56 56 57 57
30 31 32 32 33 34 34 33 33 32 34 34 34 35 37 38 49 56 56 57 57 57
28 29 30 31 31 32 33 32 32 32 31 32 31 34 35 36 38 37 36 37 39 45
28 28 28 29 30 32 32 32 32 31 31 30 31 32 33 35 35 34 33 33 34 35
27 27 28 30 30 31 32 32 32 32 32 31 30 32 32 31 33 33 33 32 32 33
27 28 28 28 30 30 31 31 30 30 31 30 30 31 31 30 28 28 28 27 28 30

GFSNIL_sfc_dewp_126.txt.gz
Dewpoint
51 53 54 54 56 58 61 65 65 65 65 65 65 65 66 66 65 66 65 64 62 60
47 50 51 53 56 57 59 60 65 65 64 64 64 64 65 65 64 64 65 66 65 63
44 45 47 48 49 49 52 54 60 64 64 63 63 63 64 63 64 63 63 63 63 62
41 43 43 43 43 45 47 51 55 62 63 63 63 63 63 63 62 62 62 62 61 61
39 39 40 40 41 42 43 45 47 51 62 61 61 62 62 61 61 61 60 60 60 60
37 37 38 38 38 39 40 41 43 44 45 48 59 60 60 61 60 60 60 60 60 60
35 36 37 37 37 37 37 37 38 40 40 40 39 38 40 44 57 60 60 60 60 59
36 35 35 36 37 37 36 35 35 36 36 36 36 35 37 40 46 55 59 59 59 59
34 35 35 35 35 35 35 35 36 35 34 34 33 34 36 38 46 50 57 57 58 58
32 33 34 34 34 34 34 34 34 33 34 33 33 33 34 36 40 38 38 38 39 49
29 30 32 32 33 33 34 33 33 33 32 33 31 32 32 34 36 36 35 34 34 35
29 29 29 30 31 32 32 32 33 32 32 32 31 31 31 31 32 31 32 32 32 32
29 30 30 31 32 32 33 33 32 33 33 30 31 30 31 31 30 28 29 30 29 31
30 30 30 31 32 32 33 33 32 32 32 32 30 30 29 29 31 31 30 27 27 29